Preview of NWS' New Version of Forecast
This preview is not operational and should not be used for support decisions.

Regional Weather Roundup (RWR)

Issued by National Weather Service (NWS)

                            
000
ASUS43 KMKX 230411
RWRWI 

WISCONSIN REGIONAL WEATHER ROUNDUP
NATIONAL WEATHER SERVICE MILWAUKEE/SULLIVAN WI
1100 PM CDT THU AUG 22 2019

NOTE: "FAIR" INDICATES FEW OR NO CLOUDS BELOW 12,000 FEET WITH NO
SIGNIFICANT WEATHER AND/OR OBSTRUCTIONS TO VISIBILITY.

WIZ001-002-006>008-014>016-023>028-230500-
NORTHWEST WISCONSIN
  
CITY           SKY/WX    TMP DP  RH WIND       PRES   REMARKS
SUPERIOR ARPT  FAIR      52  52 100 CALM      30.18S FOG              
ASHLAND        FAIR      46  46 100 SW3       30.19S                  
HAYWARD        FAIR      48  46  93 CALM      30.19R                  
SIREN          FAIR      55  50  82 CALM      30.17R                  
CUMBERLAND     FAIR      52  48  87 E6        30.16S                  
RICE LAKE      FAIR      52  37  56 N3        30.17S                  
CHETEK         FAIR      57  51  80 CALM      30.16S                  
LADYSMITH      FAIR      54  50  87 E5        30.19R                  
EAU CLAIRE     FAIR      60  50  69 NE5       30.13R                  
MENOMONIE      FAIR      58  48  70 NE5       30.14R                  
NEW RICHMOND   FAIR      56  50  78 NE3       30.15R                  
OSCEOLA        FAIR      58  52  80 NE3       30.18R                  
$$
 
WIZ003>005-009-010-017-018-230500-
NORTH CENTRAL WISCONSIN
  
CITY           SKY/WX    TMP DP  RH WIND       PRES   REMARKS
MANITOWISH WTR FAIR      44  44 100 CALM      30.19R FOG              
ARBOR VITAE    FAIR      50  48  93 CALM      30.19S                  
WOODRUFF       FAIR      50  48  93 CALM      30.19S                  
RHINELANDER    FAIR      48  45  89 CALM      30.19R                  
EAGLE RIVER    MOCLDY    45  45 100 CALM      30.19R FOG              
LAND O LAKES   FOG       44  43  98 CALM      30.21R VSB 3/4          
PHILLIPS       FAIR      47  47 100 CALM      30.18R                  
TOMAHAWK       FAIR      45  43  95 CALM      30.18S                  
MEDFORD        FAIR      50  48  93 CALM      30.17R                  
MERRILL        FAIR      51  51  99 CALM      30.18R                  
$$
 
WIZ029-030-035-036-043>047-230500-
CENTRAL WISCONSIN
  
CITY           SKY/WX    TMP DP  RH WIND       PRES   REMARKS
WAUSAU         FAIR      56  51  84 NE5       30.15R                  
MOSINEE        FAIR      54  52  94 NE6       30.16S                  
MARSHFIELD     MOCLDY    59  54  83 NE7       30.14R                  
STEVENS POINT  FAIR      55  55 100 CALM      30.16R                  
WAUPACA        FAIR      57  56  95 N3        30.14S                  
WAUTOMA        FAIR      56  54  93 CALM      30.14R                  
WISC RAPIDS    MOCLDY    60  54  80 E3        30.15R                  
CAMP DOUGLAS   MOCLDY    61  61 100 E5        30.13R                  
$$
 
WIZ011>013-019>022-031-037>040-048>050-230500-
NORTHEAST WISCONSIN
  
CITY           SKY/WX    TMP DP  RH WIND       PRES   REMARKS
ANTIGO         FAIR      50  49  99 CALM      30.17S                  
SHAWANO        FAIR      59  55  86 E3        30.14F                  
OCONTO         MOCLDY    58  53  84 NE3       30.15R                  
STURGEON BAY   CLOUDY    61  52  72 N6        30.15R                  
GREEN BAY      MOCLDY    60  57  89 NW3       30.14S                  
MANITOWOC      CLOUDY    60  56  86 NW3       30.14R                  
APPLETON       CLOUDY    61  46  59 E3        30.12S                  
CLINTONVILLE   MOCLDY    58  54  86 CALM      30.14S                  
OSHKOSH        FAIR      60  53  77 CALM      30.13R                  
$$
 
WIZ032>034-041-042-053>061-230500-
SOUTHWEST WISCONSIN
  
CITY           SKY/WX    TMP DP  RH WIND       PRES   REMARKS
LA CROSSE      FAIR      63  55  75 SE3       30.10R                  
SPARTA         FAIR      56  55  93 CALM      30.12R                  
VIROQUA        FAIR      60  60 100 E7        30.12R                  
BOSCOBEL       CLOUDY    63  60  90 CALM      30.10R                  
PRAIRIE DU CHI FAIR      63  60  88 CALM      30.08R                  
PLATTEVILLE    FAIR      62  60  92 E8        30.10R                  
$$

WIZ056-057-062-063-064-067-068-230500-
SOUTH CENTRAL WISCONSIN
  
CITY           SKY/WX    TMP DP  RH WIND       PRES   REMARKS
REEDSBURG      CLOUDY    62  57  83 NE3       30.12R                  
BARABOO/DELLS  CLOUDY    61  56  83 E3        30.13R                  
LONE ROCK      MOCLDY    63  57  81 E6        30.10R                  
MINERAL POINT  FAIR      63  55  77 SE6       30.11R                  
MADISON        FAIR      61  55  81 CALM      30.12R                  
MIDDLETON      FAIR      63   0   8 CALM      30.12R                  
WATERTOWN      FAIR      58  56  92 NE3       30.12R                  
MONROE         FAIR      61  54  79 E6        30.11R                  
JANESVILLE     FAIR      59  55  88 NE3       30.11R                  
$$
 
WIZ051-052-058>065-066-070>072-230500-
SOUTHEAST WISCONSIN
  
CITY           SKY/WX    TMP DP  RH WIND       PRES   REMARKS
MILWAUKEE      FAIR      66  51  58 NE9       30.11R                  
WAUKESHA       FAIR      59  52  77 NE3       30.13S                  
MILWAUKEE/TIMM CLOUDY    63  48  59 NE5       30.13R                  
RACINE         FAIR      64  51  62 NE8       30.12R                  
KENOSHA        FAIR      61  55  81 NE5       30.11R                  
FOND DU LAC    FAIR      62  54  74 E3        30.13R                  
SHEBOYGAN      MOCLDY    58  54  86 CALM      30.13R                  
WEST BEND      FAIR      55  54  94 CALM      30.14R                  
JUNEAU         CLOUDY    60  54  80 CALM      30.14R                  
$$

LSZ147-162-230500-
LAKE SUPERIOR
  
STATION/POSITION TIME  TEMP    WIND        PRES    WAVE
                       AIR SEA DIR/SP/G            HT/PER
                 (UTC) (F)     (DEG/KT/KT) (MB)    (FT/S)
W MID LAKE BUOY  0350   61 63   50/  2/  4 1022.0R   0
DEVILS ISLAND    0400   62     100/  7/  8 1022.3R
SAXON HARBOR     0340   53     170/  6/  7 1021.3S
$$
 
LMZ867-665-643>646-230500-
LAKE MICHIGAN
  
STATION/POSITION TIME  TEMP    WIND        PRES    WAVE
                       AIR SEA DIR/SP/G            HT/PER
                 (UTC) (F)     (DEG/KT/KT) (MB)    (FT/S)
S GREEN BAY BUOY 0330   71 70  220/  2/  4 1020.7R
N MID LAKE BUOY  0350   62 70  360/ 14/ 17 1021.1R   2/ 4
NORTHPORT PIER   0340   63     350/  6/  7 1020.7R
KEWAUNEE LAKESHO 0330   62     300/  2/  3 1019.7R
SHEBOYGAN LAKESH 0400   66      60/ 12/ 13 1020.2R
PORT WASHINGTON  0340   67      50/  9/ 11 1021.0R
ATWATER BUOY     0330   68 69   50/ 12/ 16 1019.7R   3/ 5
S MID LAKE BUOY  0350   69 73   30/ 16/ 17 1019.0R   3/ 5
KENOSHA   LAKESH 0400   69      50/ 14/ 17 1019.0
$$

TC  - TEMPERATURE IN CELSIUS
VSB - VISIBILITY IN STATUTE MILES
WCI - WIND CHILL INDEX
HX  - HEAT INDEX